Location: Brahman Valley
(40.6513°N, 111.8855°W)
Time: 09:13:38
(UTC+00:00)

Tiros 1 despin weight - Pass Details

Date: 21 May 2021
Orbit: 594 x 641 km, 48.2° (Epoch: 22 June)

Event Time Altitude Azimuth Distance (km) Brightness Sun altitude
Rises 06:43:26 0° 297° (WNW) 2,941 ? -28.4°
Reaches altitude 10° 06:45:48 10° 292° (WNW) 2,031 ? -28.5°
Enters shadow 06:47:48 24° 282° (WNW) 1,323 ? -28.5°
Maximum altitude 06:50:21 52° 217° (SW) 799 - -28.6°
Drops below altitude 10° 06:54:52 10° 141° (SE) 2,018 - -28.7°
Sets 06:57:13 0° 137° (SE) 2,920 - -28.8°
